Time,TemperatureF,DewpointF,PressureIn,WindDirection,WindDirectionDegrees,WindSpeedMPH,WindSpeedGustMPH,Humidity,HourlyPrecipIn,Conditions,Clouds,dailyrainin,SoftwareType,DateUTC
2013-05-04 00:01:00,79.4,22.0,29.36,North,359,0.0,-999.0,12,-99.99,,,0.00,weatherlink.com 1.10,2013-05-04 07:01:00,
2013-05-04 00:16:00,78.3,24.0,29.36,North,359,0.0,-999.0,13,-99.99,,,0.00,weatherlink.com 1.10,2013-05-04 07:16:00,
2013-05-04 00:31:00,77.9,23.0,29.35,North,359,0.0,-999.0,13,-99.99,,,0.00,weatherlink.com 1.10,2013-05-04 07:31:00,
2013-05-04 00:46:00,77.9,28.0,29.35,North,359,0.0,-999.0,16,-99.99,,,0.00,weatherlink.com 1.10,2013-05-04 07:46:00,
2013-05-04 01:01:00,77.4,25.0,29.34,North,357,0.0,-999.0,14,-99.99,,,0.00,weatherlink.com 1.10,2013-05-04 08:01:00,
2013-05-04 01:16:00,76.7,22.0,29.34,North,357,0.0,-999.0,13,-99.99,,,0.00,weatherlink.com 1.10,2013-05-04 08:16:00,
2013-05-04 01:31:00,76.5,22.0,29.33,North,357,0.0,-999.0,13,-99.99,,,0.00,weatherlink.com 1.10,2013-05-04 08:31:00,
2013-05-04 01:46:00,76.1,22.0,29.32,North,359,0.0,-999.0,13,-99.99,,,0.00,weatherlink.com 1.10,2013-05-04 08:46:00,
2013-05-04 02:01:00,76.0,22.0,29.32,North,359,0.0,-999.0,13,-99.99,,,0.00,weatherlink.com 1.10,2013-05-04 09:01:00,
2013-05-04 02:16:00,75.4,21.0,29.32,North,359,0.0,-999.0,13,-99.99,,,0.00,weatherlink.com 1.10,2013-05-04 09:16:00,
2013-05-04 02:31:00,75.4,21.0,29.31,North,359,0.0,-999.0,13,-99.99,,,0.00,weatherlink.com 1.10,2013-05-04 09:31:00,
2013-05-04 02:46:00,74.9,22.0,29.31,North,359,0.0,-999.0,14,-99.99,,,0.00,weatherlink.com 1.10,2013-05-04 09:46:00,
2013-05-04 03:01:00,74.6,22.0,29.30,North,357,0.0,-999.0,14,-99.99,,,0.00,weatherlink.com 1.10,2013-05-04 10:01:00,
2013-05-04 03:16:00,74.7,22.0,29.30,North,357,0.0,-999.0,14,-99.99,,,0.00,weatherlink.com 1.10,2013-05-04 10:16:00,
2013-05-04 03:31:00,74.4,22.0,29.30,North,357,0.0,-999.0,14,-99.99,,,0.00,weatherlink.com 1.10,2013-05-04 10:31:00,
2013-05-04 03:46:00,74.0,22.0,29.30,North,359,0.0,-999.0,14,-99.99,,,0.00,weatherlink.com 1.10,2013-05-04 10:46:00,
2013-05-04 04:01:00,73.7,23.0,29.30,North,359,0.0,-999.0,15,-99.99,,,0.00,weatherlink.com 1.10,2013-05-04 11:01:00,
2013-05-04 04:16:00,73.9,23.0,29.30,North,359,0.0,-999.0,15,-99.99,,,0.00,weatherlink.com 1.10,2013-05-04 11:16:00,
2013-05-04 04:31:00,73.7,23.0,29.29,North,359,0.0,-999.0,15,-99.99,,,0.00,weatherlink.com 1.10,2013-05-04 11:31:00,
2013-05-04 04:46:00,73.3,24.0,29.29,North,359,0.0,-999.0,16,-99.99,,,0.00,weatherlink.com 1.10,2013-05-04 11:46:00,
2013-05-04 05:16:00,71.3,21.0,29.29,North,359,0.0,-999.0,15,-99.99,,,0.00,weatherlink.com 1.10,2013-05-04 12:16:00,
2013-05-04 05:31:00,71.3,21.0,29.29,North,359,0.0,-999.0,15,-99.99,,,0.00,weatherlink.com 1.10,2013-05-04 12:31:00,
2013-05-04 05:46:00,70.1,26.0,29.30,North,359,0.0,-999.0,19,-99.99,,,0.00,weatherlink.com 1.10,2013-05-04 12:46:00,
2013-05-04 06:01:00,69.4,24.0,29.30,North,359,0.0,-999.0,18,-99.99,,,0.00,weatherlink.com 1.10,2013-05-04 13:01:00,
2013-05-04 06:16:00,69.6,24.0,29.30,North,359,0.0,-999.0,18,-99.99,,,0.00,weatherlink.com 1.10,2013-05-04 13:16:00,
2013-05-04 06:31:00,68.8,29.0,29.31,North,359,0.0,-999.0,23,-99.99,,,0.00,weatherlink.com 1.10,2013-05-04 13:31:00,
2013-05-04 06:46:00,68.8,29.0,29.32,North,359,0.0,-999.0,23,-99.99,,,0.00,weatherlink.com 1.10,2013-05-04 13:46:00,
2013-05-04 07:01:00,-999.0,-99.9,29.32,North,-999,-999.0,-999.0,-999,-99.99,,,0.00,weatherlink.com 1.10,2013-05-04 14:01:00,
2013-05-04 07:16:00,69.6,33.0,29.32,North,359,0.0,-999.0,26,-99.99,,,0.00,weatherlink.com 1.10,2013-05-04 14:16:00,
2013-05-04 07:32:00,71.3,32.0,29.33,North,357,0.0,-999.0,23,-99.99,,,0.00,weatherlink.com 1.10,2013-05-04 14:32:00,
2013-05-04 07:46:00,74.0,29.0,29.33,North,357,0.0,-999.0,19,-99.99,,,0.00,weatherlink.com 1.10,2013-05-04 14:46:00,
2013-05-04 08:01:00,76.8,29.0,29.33,North,357,0.0,-999.0,17,-99.99,,,0.00,weatherlink.com 1.10,2013-05-04 15:01:00,
2013-05-04 08:16:00,79.0,29.0,29.33,North,359,0.0,-999.0,16,-99.99,,,0.00,weatherlink.com 1.10,2013-05-04 15:16:00,
2013-05-04 08:31:00,80.9,29.0,29.33,North,359,0.0,-999.0,15,-99.99,,,0.00,weatherlink.com 1.10,2013-05-04 15:31:00,
2013-05-04 08:47:00,82.4,27.0,29.33,North,357,0.0,-999.0,13,-99.99,,,0.00,weatherlink.com 1.10,2013-05-04 15:47:00,
2013-05-04 09:02:00,84.5,30.0,29.34,North,359,0.0,-999.0,14,-99.99,,,0.00,weatherlink.com 1.10,2013-05-04 16:02:00,
2013-05-04 09:17:00,86.7,38.0,29.34,North,357,5.0,-999.0,18,-99.99,,,0.00,weatherlink.com 1.10,2013-05-04 16:17:00,
2013-05-04 09:32:00,87.2,39.0,29.34,North,356,5.0,-999.0,18,-99.99,,,0.00,weatherlink.com 1.10,2013-05-04 16:32:00,
2013-05-04 09:47:00,88.2,37.0,29.34,North,356,6.0,-999.0,16,-99.99,,,0.00,weatherlink.com 1.10,2013-05-04 16:47:00,
2013-05-04 10:02:00,89.0,36.0,29.34,North,357,7.0,-999.0,15,-99.99,,,0.00,weatherlink.com 1.10,2013-05-04 17:02:00,
2013-05-04 10:17:00,89.9,33.0,29.34,North,353,11.0,-999.0,13,-99.99,,,0.00,weatherlink.com 1.10,2013-05-04 17:17:00,
2013-05-04 10:32:00,90.7,33.0,29.34,NW,322,5.0,-999.0,13,-99.99,,,0.00,weatherlink.com 1.10,2013-05-04 17:32:00,
2013-05-04 10:47:00,90.7,31.0,29.34,North,357,3.0,-999.0,12,-99.99,,,0.00,weatherlink.com 1.10,2013-05-04 17:47:00,
2013-05-04 11:02:00,92.1,33.0,29.34,North,356,2.0,-999.0,12,-99.99,,,0.00,weatherlink.com 1.10,2013-05-04 18:02:00,
2013-05-04 11:17:00,92.7,31.0,29.33,North,356,6.0,-999.0,11,-99.99,,,0.00,weatherlink.com 1.10,2013-05-04 18:17:00,
2013-05-04 11:32:00,92.9,31.0,29.32,North,356,1.0,-999.0,11,-99.99,,,0.00,weatherlink.com 1.10,2013-05-04 18:32:00,
2013-05-04 11:47:00,93.8,29.0,29.32,North,357,6.0,-999.0,10,-99.99,,,0.00,weatherlink.com 1.10,2013-05-04 18:47:00,
2013-05-04 12:02:00,93.6,29.0,29.32,North,357,2.0,-999.0,10,-99.99,,,0.00,weatherlink.com 1.10,2013-05-04 19:02:00,
2013-05-04 12:17:00,94.3,30.0,29.31,North,357,1.0,-999.0,10,-99.99,,,0.00,weatherlink.com 1.10,2013-05-04 19:17:00,
2013-05-04 12:32:00,95.1,28.0,29.30,North,357,0.0,-999.0,9,-99.99,,,0.00,weatherlink.com 1.10,2013-05-04 19:32:00,
2013-05-04 12:47:00,95.6,22.0,29.30,North,357,2.0,-999.0,7,-99.99,,,0.00,weatherlink.com 1.10,2013-05-04 19:47:00,
2013-05-04 13:02:00,95.9,26.0,29.29,North,357,0.0,-999.0,8,-99.99,,,0.00,weatherlink.com 1.10,2013-05-04 20:02:00,
2013-05-04 13:17:00,95.1,22.0,29.28,North,356,5.0,-999.0,7,-99.99,,,0.00,weatherlink.com 1.10,2013-05-04 20:17:00,
2013-05-04 13:32:00,96.8,23.0,29.28,North,356,2.0,-999.0,7,-99.99,,,0.00,weatherlink.com 1.10,2013-05-04 20:32:00,
2013-05-04 13:47:00,96.8,26.0,29.27,North,357,4.0,-999.0,8,-99.99,,,0.00,weatherlink.com 1.10,2013-05-04 20:47:00,
2013-05-04 14:02:00,96.8,29.0,29.27,North,357,6.0,-999.0,9,-99.99,,,0.00,weatherlink.com 1.10,2013-05-04 21:02:00,
2013-05-04 14:17:00,97.5,30.0,29.27,North,357,7.0,-999.0,9,-99.99,,,0.00,weatherlink.com 1.10,2013-05-04 21:17:00,
2013-05-04 14:32:00,97.3,30.0,29.26,North,357,0.0,-999.0,9,-99.99,,,0.00,weatherlink.com 1.10,2013-05-04 21:32:00,
2013-05-04 14:47:00,96.8,29.0,29.26,NNW,346,7.0,-999.0,9,-99.99,,,0.00,weatherlink.com 1.10,2013-05-04 21:47:00,
2013-05-04 15:02:00,97.3,30.0,29.25,North,357,3.0,-999.0,9,-99.99,,,0.00,weatherlink.com 1.10,2013-05-04 22:02:00,
2013-05-04 15:17:00,97.5,30.0,29.25,North,357,6.0,-999.0,9,-99.99,,,0.00,weatherlink.com 1.10,2013-05-04 22:17:00,
2013-05-04 15:32:00,97.3,27.0,29.24,North,357,7.0,-999.0,8,-99.99,,,0.00,weatherlink.com 1.10,2013-05-04 22:32:00,
2013-05-04 15:47:00,96.6,26.0,29.23,North,356,10.0,-999.0,8,-99.99,,,0.00,weatherlink.com 1.10,2013-05-04 22:47:00,
2013-05-04 16:02:00,97.1,23.0,29.23,North,356,2.0,-999.0,7,-99.99,,,0.00,weatherlink.com 1.10,2013-05-04 23:02:00,
2013-05-04 16:17:00,96.6,23.0,29.23,South,185,4.0,-999.0,7,-99.99,,,0.00,weatherlink.com 1.10,2013-05-04 23:17:00,
2013-05-04 16:32:00,95.1,22.0,29.23,NNW,342,8.0,-999.0,7,-99.99,,,0.00,weatherlink.com 1.10,2013-05-04 23:32:00,
2013-05-04 16:47:00,94.9,22.0,29.23,SW,236,3.0,-999.0,7,-99.99,,,0.00,weatherlink.com 1.10,2013-05-04 23:47:00,
2013-05-04 17:02:00,93.2,24.0,29.23,North,357,1.0,-999.0,8,-99.99,,,0.00,weatherlink.com 1.10,2013-05-05 00:02:00,
2013-05-04 17:17:00,92.9,20.0,29.23,North,357,6.0,-999.0,7,-99.99,,,0.00,weatherlink.com 1.10,2013-05-05 00:17:00,
2013-05-04 17:32:00,93.2,20.0,29.23,North,0,6.0,-999.0,7,-99.99,,,0.00,weatherlink.com 1.10,2013-05-05 00:32:00,
2013-05-04 17:47:00,92.5,16.0,29.23,North,357,1.0,-999.0,6,-99.99,,,0.00,weatherlink.com 1.10,2013-05-05 00:47:00,
2013-05-04 18:02:00,91.8,19.0,29.22,North,357,8.0,-999.0,7,-99.99,,,0.00,weatherlink.com 1.10,2013-05-05 01:02:00,
2013-05-04 18:17:00,90.7,18.0,29.22,North,357,2.0,-999.0,7,-99.99,,,0.00,weatherlink.com 1.10,2013-05-05 01:17:00,
2013-05-04 18:32:00,89.7,21.0,29.22,North,357,2.0,-999.0,8,-99.99,,,0.00,weatherlink.com 1.10,2013-05-05 01:32:00,
2013-05-04 18:47:00,88.4,23.0,29.23,North,357,7.0,-999.0,9,-99.99,,,0.00,weatherlink.com 1.10,2013-05-05 01:47:00,
2013-05-04 19:02:00,87.4,24.0,29.23,North,357,6.0,-999.0,10,-99.99,,,0.00,weatherlink.com 1.10,2013-05-05 02:02:00,
2013-05-04 19:17:00,85.9,26.0,29.23,North,359,2.0,-999.0,11,-99.99,,,0.00,weatherlink.com 1.10,2013-05-05 02:17:00,
2013-05-04 19:32:00,85.1,27.0,29.24,North,359,6.0,-999.0,12,-99.99,,,0.00,weatherlink.com 1.10,2013-05-05 02:32:00,
2013-05-04 19:47:00,84.1,24.0,29.24,North,359,5.0,-999.0,11,-99.99,,,0.00,weatherlink.com 1.10,2013-05-05 02:47:00,
2013-05-04 20:02:00,83.8,26.0,29.24,North,356,5.0,-999.0,12,-99.99,,,0.00,weatherlink.com 1.10,2013-05-05 03:02:00,
2013-05-04 20:17:00,83.4,28.0,29.25,North,356,8.0,-999.0,13,-99.99,,,0.00,weatherlink.com 1.10,2013-05-05 03:17:00,
2013-05-04 20:32:00,82.8,29.0,29.26,North,357,7.0,-999.0,14,-99.99,,,0.00,weatherlink.com 1.10,2013-05-05 03:32:00,
2013-05-04 20:47:00,82.4,32.0,29.26,NNW,344,8.0,-999.0,16,-99.99,,,0.00,weatherlink.com 1.10,2013-05-05 03:47:00,
2013-05-04 21:02:00,82.0,34.0,29.27,North,356,5.0,-999.0,18,-99.99,,,0.00,weatherlink.com 1.10,2013-05-05 04:02:00,
2013-05-04 21:17:00,81.4,37.0,29.28,North,357,4.0,-999.0,20,-99.99,,,0.00,weatherlink.com 1.10,2013-05-05 04:17:00,
2013-05-04 21:32:00,80.9,36.0,29.29,North,357,0.0,-999.0,20,-99.99,,,0.00,weatherlink.com 1.10,2013-05-05 04:32:00,
2013-05-04 21:47:00,79.9,40.0,29.32,NNW,336,4.0,-999.0,24,-99.99,,,0.00,weatherlink.com 1.10,2013-05-05 04:47:00,
2013-05-04 22:02:00,78.6,44.0,29.33,North,357,8.0,-999.0,29,-99.99,,,0.00,weatherlink.com 1.10,2013-05-05 05:02:00,
2013-05-04 22:17:00,77.6,45.0,29.33,North,359,3.0,-999.0,31,-99.99,,,0.00,weatherlink.com 1.10,2013-05-05 05:17:00,
2013-05-04 22:32:00,77.7,44.0,29.33,North,359,0.0,-999.0,30,-99.99,,,0.00,weatherlink.com 1.10,2013-05-05 05:32:00,
2013-05-04 22:47:00,77.7,43.0,29.33,North,359,0.0,-999.0,29,-99.99,,,0.00,weatherlink.com 1.10,2013-05-05 05:47:00,
2013-05-04 23:02:00,77.6,42.0,29.33,North,359,0.0,-999.0,28,-99.99,,,0.00,weatherlink.com 1.10,2013-05-05 06:02:00,
2013-05-04 23:17:00,77.2,42.0,29.33,NW,304,1.0,-999.0,28,-99.99,,,0.00,weatherlink.com 1.10,2013-05-05 06:17:00,
2013-05-04 23:33:00,76.8,42.0,29.33,North,359,0.0,-999.0,29,-99.99,,,0.00,weatherlink.com 1.10,2013-05-05 06:33:00,
2013-05-04 23:48:00,76.5,43.0,29.34,North,359,2.0,-999.0,30,-99.99,,,0.00,weatherlink.com 1.10,2013-05-05 06:48:00,